Year,Month,Day,Hour,Minute,Value (Times are PST for temperature in C)
2015,11,10,00,00,1.40
2015,11,10,00,01,1.40
2015,11,10,00,02,1.40
2015,11,10,00,03,1.40
2015,11,10,00,04,1.40
2015,11,10,00,05,1.40
2015,11,10,00,06,1.40
2015,11,10,00,07,1.40
2015,11,10,00,08,1.40
2015,11,10,00,09,1.50
2015,11,10,00,10,1.50
2015,11,10,00,11,1.50
2015,11,10,00,12,1.50
2015,11,10,00,13,1.40
2015,11,10,00,14,1.40
2015,11,10,00,15,1.40
2015,11,10,00,16,1.40
2015,11,10,00,17,1.30
2015,11,10,00,18,1.30
2015,11,10,00,19,1.30
2015,11,10,00,20,1.30
2015,11,10,00,21,1.30
2015,11,10,00,22,1.30
2015,11,10,00,23,1.30
2015,11,10,00,24,1.30
2015,11,10,00,25,1.30
2015,11,10,00,26,1.30
2015,11,10,00,27,1.30
2015,11,10,00,28,1.20
2015,11,10,00,29,1.20
2015,11,10,00,30,1.20
2015,11,10,00,31,1.20
2015,11,10,00,32,1.20
2015,11,10,00,33,1.20
2015,11,10,00,34,1.20
2015,11,10,00,35,1.20
2015,11,10,00,36,1.20
2015,11,10,00,37,1.10
2015,11,10,00,38,1.10
2015,11,10,00,39,1.10
2015,11,10,00,40,1.10
2015,11,10,00,41,1.10
2015,11,10,00,42,1.10
2015,11,10,00,43,1.10
2015,11,10,00,44,1.10
2015,11,10,00,45,1.10
2015,11,10,00,46,1.10
2015,11,10,00,47,1.10
2015,11,10,00,48,1.10
2015,11,10,00,49,1.10
2015,11,10,00,50,1.10
2015,11,10,00,51,1.10
2015,11,10,00,52,1.10
2015,11,10,00,53,1.20
2015,11,10,00,54,1.20
2015,11,10,00,55,1.20
2015,11,10,00,56,1.20
2015,11,10,00,57,1.20
2015,11,10,00,58,1.20
2015,11,10,00,59,1.30
2015,11,10,01,00,1.30
2015,11,10,01,01,1.30
2015,11,10,01,02,1.30
2015,11,10,01,03,1.30
2015,11,10,01,04,1.30
2015,11,10,01,05,1.30
2015,11,10,01,06,1.30
2015,11,10,01,07,1.30
2015,11,10,01,08,1.30
2015,11,10,01,09,1.30
2015,11,10,01,10,1.30
2015,11,10,01,11,1.30
2015,11,10,01,12,1.30
2015,11,10,01,13,1.30
2015,11,10,01,14,1.30
2015,11,10,01,15,1.30
2015,11,10,01,16,1.30
2015,11,10,01,17,1.30
2015,11,10,01,18,1.40
2015,11,10,01,19,1.40
2015,11,10,01,20,1.40
2015,11,10,01,21,1.40
2015,11,10,01,22,1.40
2015,11,10,01,23,1.40
2015,11,10,01,24,1.40
2015,11,10,01,25,1.40
2015,11,10,01,26,1.30
2015,11,10,01,27,1.30
2015,11,10,01,28,1.30
2015,11,10,01,29,1.30
2015,11,10,01,30,1.30
2015,11,10,01,31,1.30
2015,11,10,01,32,1.30
2015,11,10,01,33,1.30
2015,11,10,01,34,1.30
2015,11,10,01,35,1.30
2015,11,10,01,36,1.30
2015,11,10,01,37,1.30
2015,11,10,01,38,1.30
2015,11,10,01,39,1.30
2015,11,10,01,40,1.30
2015,11,10,01,41,1.30
2015,11,10,01,42,1.30
2015,11,10,01,43,1.30
2015,11,10,01,44,1.30
2015,11,10,01,45,1.30
2015,11,10,01,46,1.30
2015,11,10,01,47,1.30
2015,11,10,01,48,1.30
2015,11,10,01,49,1.30
2015,11,10,01,50,1.30
2015,11,10,01,51,1.30
2015,11,10,01,52,1.30
2015,11,10,01,53,1.40
2015,11,10,01,54,1.50
2015,11,10,01,55,1.50
2015,11,10,01,56,1.60
2015,11,10,01,57,1.60
2015,11,10,01,58,1.60
2015,11,10,01,59,1.60
2015,11,10,02,00,1.60
2015,11,10,02,01,1.60
2015,11,10,02,02,1.60
2015,11,10,02,03,1.70
2015,11,10,02,04,1.70
2015,11,10,02,05,1.70
2015,11,10,02,06,1.70
2015,11,10,02,07,1.70
2015,11,10,02,08,1.70
2015,11,10,02,09,1.70
2015,11,10,02,10,1.60
2015,11,10,02,11,1.60
2015,11,10,02,12,1.60
2015,11,10,02,13,1.60
2015,11,10,02,14,1.60
2015,11,10,02,15,1.50
2015,11,10,02,16,1.50
2015,11,10,02,17,1.50
2015,11,10,02,18,1.40
2015,11,10,02,19,1.40
2015,11,10,02,20,1.40
2015,11,10,02,21,1.30
2015,11,10,02,22,1.30
2015,11,10,02,23,1.30
2015,11,10,02,24,1.30
2015,11,10,02,25,1.30
2015,11,10,02,26,1.30
2015,11,10,02,27,1.30
2015,11,10,02,28,1.30
2015,11,10,02,29,1.30
2015,11,10,02,30,1.30
2015,11,10,02,31,1.30
2015,11,10,02,32,1.30
2015,11,10,02,33,1.30
2015,11,10,02,34,1.30
2015,11,10,02,35,1.30
2015,11,10,02,36,1.30
2015,11,10,02,37,1.30
2015,11,10,02,38,1.20
2015,11,10,02,39,1.20
2015,11,10,02,40,1.20
2015,11,10,02,41,1.20
2015,11,10,02,42,1.20
2015,11,10,02,43,1.20
2015,11,10,02,44,1.20
2015,11,10,02,45,1.20
2015,11,10,02,46,1.20
2015,11,10,02,47,1.10
2015,11,10,02,48,1.10
2015,11,10,02,49,1.10
2015,11,10,02,50,1.10
2015,11,10,02,51,1.10
2015,11,10,02,52,1.10
2015,11,10,02,53,1.10
2015,11,10,02,54,1.10
2015,11,10,02,55,1.10
2015,11,10,02,56,1.00
2015,11,10,02,57,1.00
2015,11,10,02,58,1.00
2015,11,10,02,59,1.00
2015,11,10,03,00,1.00
2015,11,10,03,01,1.00
2015,11,10,03,02,1.10
2015,11,10,03,03,1.10
2015,11,10,03,04,1.10
2015,11,10,03,05,1.10
2015,11,10,03,06,1.10
2015,11,10,03,07,1.00
2015,11,10,03,08,1.00
2015,11,10,03,09,1.00
2015,11,10,03,10,0.90
2015,11,10,03,11,0.90
2015,11,10,03,12,0.90
2015,11,10,03,13,0.90
2015,11,10,03,14,0.90
2015,11,10,03,15,0.80
2015,11,10,03,16,0.80
2015,11,10,03,17,0.80
2015,11,10,03,18,0.80
2015,11,10,03,19,0.80
2015,11,10,03,20,0.80
2015,11,10,03,21,0.80
2015,11,10,03,22,0.80
2015,11,10,03,23,0.80
2015,11,10,03,24,0.70
2015,11,10,03,25,0.70
2015,11,10,03,26,0.70
2015,11,10,03,27,0.70
2015,11,10,03,28,0.70
2015,11,10,03,29,0.70
2015,11,10,03,30,0.70
2015,11,10,03,31,0.70
2015,11,10,03,32,0.70
2015,11,10,03,33,0.70
2015,11,10,03,34,0.70
2015,11,10,03,35,0.70
2015,11,10,03,36,0.70
2015,11,10,03,37,0.70
2015,11,10,03,38,0.70
2015,11,10,03,39,0.70
2015,11,10,03,40,0.70
2015,11,10,03,41,0.70
2015,11,10,03,42,0.70
2015,11,10,03,43,0.70
2015,11,10,03,44,0.70
2015,11,10,03,45,0.70
2015,11,10,03,46,0.70
2015,11,10,03,47,0.70
2015,11,10,03,48,0.70
2015,11,10,03,49,0.70
2015,11,10,03,50,0.70
2015,11,10,03,51,0.70
2015,11,10,03,52,0.70
2015,11,10,03,53,0.70
2015,11,10,03,54,0.80
2015,11,10,03,55,0.80
2015,11,10,03,56,0.80
2015,11,10,03,57,0.80
2015,11,10,03,58,0.90
2015,11,10,03,59,0.90
2015,11,10,04,00,0.90
2015,11,10,04,01,1.00
2015,11,10,04,02,1.00
2015,11,10,04,03,1.10
2015,11,10,04,04,1.10
2015,11,10,04,05,1.10
2015,11,10,04,06,1.20
2015,11,10,04,07,1.20
2015,11,10,04,08,1.20
2015,11,10,04,09,1.20
2015,11,10,04,10,1.30
2015,11,10,04,11,1.30
2015,11,10,04,12,1.30
2015,11,10,04,13,1.30
2015,11,10,04,14,1.30
2015,11,10,04,15,1.30
2015,11,10,04,16,1.40
2015,11,10,04,17,1.50
2015,11,10,04,18,1.50
2015,11,10,04,19,1.60
2015,11,10,04,20,1.60
2015,11,10,04,21,1.60
2015,11,10,04,22,1.60
2015,11,10,04,23,1.70
2015,11,10,04,24,1.70
2015,11,10,04,25,1.70
2015,11,10,04,26,1.70
2015,11,10,04,27,1.70
2015,11,10,04,28,1.70
2015,11,10,04,29,1.70
2015,11,10,04,30,1.70
2015,11,10,04,31,1.70
2015,11,10,04,32,1.70
2015,11,10,04,33,1.70
2015,11,10,04,34,1.70
2015,11,10,04,35,1.80
2015,11,10,04,36,1.80
2015,11,10,04,37,1.80
2015,11,10,04,38,1.80
2015,11,10,04,39,1.80
2015,11,10,04,40,1.90
2015,11,10,04,41,1.90
2015,11,10,04,42,1.90
2015,11,10,04,43,1.90
2015,11,10,04,44,1.90
2015,11,10,04,45,1.90
2015,11,10,04,46,1.90
2015,11,10,04,47,1.90
2015,11,10,04,48,1.90
2015,11,10,04,49,1.90
2015,11,10,04,50,2.00
2015,11,10,04,51,2.00
2015,11,10,04,52,2.00
2015,11,10,04,53,2.00
2015,11,10,04,54,2.00
2015,11,10,04,55,2.00
2015,11,10,04,56,2.00
2015,11,10,04,57,2.00
2015,11,10,04,58,2.00
2015,11,10,04,59,2.00
2015,11,10,05,00,2.00
2015,11,10,05,01,2.10
2015,11,10,05,02,2.10
2015,11,10,05,03,2.10
2015,11,10,05,04,2.10
2015,11,10,05,05,2.10
2015,11,10,05,06,2.20
2015,11,10,05,07,2.20
2015,11,10,05,08,2.20
2015,11,10,05,09,2.20
2015,11,10,05,10,2.20
2015,11,10,05,11,2.20
2015,11,10,05,12,2.20
2015,11,10,05,13,2.20
2015,11,10,05,14,2.20
2015,11,10,05,15,2.20
2015,11,10,05,16,2.20
2015,11,10,05,17,2.20
2015,11,10,05,18,2.20
2015,11,10,05,19,2.30
2015,11,10,05,20,2.30
2015,11,10,05,21,2.30
2015,11,10,05,22,2.30
2015,11,10,05,23,2.30
2015,11,10,05,24,2.30
2015,11,10,05,25,2.30
2015,11,10,05,26,2.40
2015,11,10,05,27,2.40
2015,11,10,05,28,2.40
2015,11,10,05,29,2.40
2015,11,10,05,30,2.40
2015,11,10,05,31,2.40
2015,11,10,05,32,2.40
2015,11,10,05,33,2.40
2015,11,10,05,34,2.50
2015,11,10,05,35,2.50
2015,11,10,05,36,2.50
2015,11,10,05,37,2.50
2015,11,10,05,38,2.50
2015,11,10,05,39,2.50
2015,11,10,05,40,2.60
2015,11,10,05,41,2.60
2015,11,10,05,42,2.60
2015,11,10,05,43,2.60
2015,11,10,05,44,2.60
2015,11,10,05,45,2.60
2015,11,10,05,46,2.60
2015,11,10,05,47,2.70
2015,11,10,05,48,2.70
2015,11,10,05,49,2.70
2015,11,10,05,50,2.70
2015,11,10,05,51,2.70
2015,11,10,05,52,2.70
2015,11,10,05,53,2.80
2015,11,10,05,54,2.80
2015,11,10,05,55,2.80
2015,11,10,05,56,2.80
2015,11,10,05,57,2.80
2015,11,10,05,58,2.80
2015,11,10,05,59,2.80
2015,11,10,06,00,2.80
2015,11,10,06,01,2.80
2015,11,10,06,02,2.80
2015,11,10,06,03,2.90
2015,11,10,06,04,2.90
2015,11,10,06,05,2.90
2015,11,10,06,06,2.90
2015,11,10,06,07,2.90
2015,11,10,06,08,2.90
2015,11,10,06,09,3.00
2015,11,10,06,10,3.00
2015,11,10,06,11,3.10
2015,11,10,06,12,3.10
2015,11,10,06,13,3.10
2015,11,10,06,14,3.10
2015,11,10,06,15,3.10
2015,11,10,06,16,3.20
2015,11,10,06,17,3.20
2015,11,10,06,18,3.20
2015,11,10,06,19,3.20
2015,11,10,06,20,3.20
2015,11,10,06,21,3.20
2015,11,10,06,22,3.20
2015,11,10,06,23,3.30
2015,11,10,06,24,3.30
2015,11,10,06,25,3.30
2015,11,10,06,26,3.40
2015,11,10,06,27,3.40
2015,11,10,06,28,3.40
2015,11,10,06,29,3.50
2015,11,10,06,30,3.50
2015,11,10,06,31,3.60
2015,11,10,06,32,3.60
2015,11,10,06,33,3.70
2015,11,10,06,34,3.70
2015,11,10,06,35,3.80
2015,11,10,06,36,3.80
2015,11,10,06,37,3.80
2015,11,10,06,38,3.90
2015,11,10,06,39,3.90
2015,11,10,06,40,3.90
2015,11,10,06,41,3.90
2015,11,10,06,42,4.00
2015,11,10,06,43,4.00
2015,11,10,06,44,4.00
2015,11,10,06,45,4.10
2015,11,10,06,46,4.10
2015,11,10,06,47,4.10
2015,11,10,06,48,4.10
2015,11,10,06,49,4.10
2015,11,10,06,50,4.20
2015,11,10,06,51,4.20
2015,11,10,06,52,4.20
2015,11,10,06,53,4.20
2015,11,10,06,54,4.20
2015,11,10,06,55,4.20
2015,11,10,06,56,4.20
2015,11,10,06,57,4.20
2015,11,10,06,58,4.20
2015,11,10,06,59,4.20
2015,11,10,07,00,4.20
2015,11,10,07,01,4.20
2015,11,10,07,02,4.20
2015,11,10,07,03,4.20
2015,11,10,07,04,4.30
2015,11,10,07,05,4.30
2015,11,10,07,06,4.30
2015,11,10,07,07,4.30
2015,11,10,07,08,4.30
2015,11,10,07,09,4.30
2015,11,10,07,10,4.30
2015,11,10,07,11,4.30
2015,11,10,07,12,4.30
2015,11,10,07,13,4.30
2015,11,10,07,14,4.30
2015,11,10,07,15,4.30
2015,11,10,07,16,4.30
2015,11,10,07,17,4.30
2015,11,10,07,18,4.30
2015,11,10,07,19,4.20
2015,11,10,07,20,4.20
2015,11,10,07,21,4.20
2015,11,10,07,22,4.20
2015,11,10,07,23,4.20
2015,11,10,07,24,4.20
2015,11,10,07,25,4.20
2015,11,10,07,26,4.20
2015,11,10,07,27,4.10
2015,11,10,07,28,4.10
2015,11,10,07,29,4.10
2015,11,10,07,30,4.10
2015,11,10,07,31,4.10
2015,11,10,07,32,4.00
2015,11,10,07,33,4.00
2015,11,10,07,34,3.90
2015,11,10,07,35,3.90
2015,11,10,07,36,3.90
2015,11,10,07,37,3.90
2015,11,10,07,38,3.80
2015,11,10,07,39,3.80
2015,11,10,07,40,3.80
2015,11,10,07,41,3.80
2015,11,10,07,42,3.80
2015,11,10,07,43,3.80
2015,11,10,07,44,3.80
2015,11,10,07,45,3.80
2015,11,10,07,46,3.80
2015,11,10,07,47,3.80
2015,11,10,07,48,3.80
2015,11,10,07,49,3.80
2015,11,10,07,50,3.80
2015,11,10,07,51,3.80
2015,11,10,07,52,3.80
2015,11,10,07,53,3.80
2015,11,10,07,54,3.80
2015,11,10,07,55,3.80
2015,11,10,07,56,3.80
2015,11,10,07,57,3.80
2015,11,10,07,58,3.80
2015,11,10,07,59,3.70
2015,11,10,08,00,3.70
2015,11,10,08,01,3.70
2015,11,10,08,02,3.70
2015,11,10,08,03,3.70
2015,11,10,08,04,3.70
2015,11,10,08,05,3.70
2015,11,10,08,06,3.70
2015,11,10,08,07,3.80
2015,11,10,08,08,3.80
2015,11,10,08,09,3.80
2015,11,10,08,10,3.90
2015,11,10,08,11,3.90
2015,11,10,08,12,4.00
2015,11,10,08,13,4.10
2015,11,10,08,14,4.10
2015,11,10,08,15,4.20
2015,11,10,08,16,4.20
2015,11,10,08,17,4.20
2015,11,10,08,18,4.30
2015,11,10,08,19,4.30
2015,11,10,08,20,4.30
2015,11,10,08,21,4.30
2015,11,10,08,22,4.30
2015,11,10,08,23,4.40
2015,11,10,08,24,4.40
2015,11,10,08,25,4.40
2015,11,10,08,26,4.40
2015,11,10,08,27,4.50
2015,11,10,08,28,4.50
2015,11,10,08,29,4.50
2015,11,10,08,30,4.60
2015,11,10,08,31,4.60
2015,11,10,08,32,4.70
2015,11,10,08,33,4.70
2015,11,10,08,34,4.80
2015,11,10,08,35,4.80
2015,11,10,08,36,4.80
2015,11,10,08,37,4.90
2015,11,10,08,38,4.90
2015,11,10,08,39,4.90
2015,11,10,08,40,5.00
2015,11,10,08,41,5.00
2015,11,10,08,42,5.10
2015,11,10,08,43,5.10
2015,11,10,08,44,5.10
2015,11,10,08,45,5.20
2015,11,10,08,46,5.20
2015,11,10,08,47,5.30
2015,11,10,08,48,5.30
2015,11,10,08,49,5.30
2015,11,10,08,50,5.40
2015,11,10,08,51,5.40
2015,11,10,08,52,5.50
2015,11,10,08,53,5.50
2015,11,10,08,54,5.60
2015,11,10,08,55,5.60
2015,11,10,08,56,5.70
2015,11,10,08,57,5.70
2015,11,10,08,58,5.70
2015,11,10,08,59,5.70
2015,11,10,09,00,5.80
2015,11,10,09,01,5.80
2015,11,10,09,02,5.80
2015,11,10,09,03,5.80
2015,11,10,09,04,5.90
2015,11,10,09,05,5.90
2015,11,10,09,06,5.90
2015,11,10,09,07,5.90
2015,11,10,09,08,5.90
2015,11,10,09,09,5.90
2015,11,10,09,10,6.00
2015,11,10,09,11,6.00
2015,11,10,09,12,6.00
2015,11,10,09,13,6.00
2015,11,10,09,14,6.00
2015,11,10,09,15,6.10
2015,11,10,09,16,6.10
2015,11,10,09,17,6.10
2015,11,10,09,18,6.20
2015,11,10,09,19,6.20
2015,11,10,09,20,6.20
2015,11,10,09,21,6.20
2015,11,10,09,22,6.20
2015,11,10,09,23,6.20
2015,11,10,09,24,6.30
2015,11,10,09,25,6.30
2015,11,10,09,26,6.30
2015,11,10,09,27,6.30
2015,11,10,09,28,6.30
2015,11,10,09,29,6.40
2015,11,10,09,30,6.40
2015,11,10,09,31,6.50
2015,11,10,09,32,6.50
2015,11,10,09,33,6.60
2015,11,10,09,34,6.60
2015,11,10,09,35,6.70
2015,11,10,09,36,6.70
2015,11,10,09,37,6.80
2015,11,10,09,38,6.80
2015,11,10,09,39,6.80
2015,11,10,09,40,6.90
2015,11,10,09,41,6.90
2015,11,10,09,42,7.00
2015,11,10,09,43,7.10
2015,11,10,09,44,7.10
2015,11,10,09,45,7.20
2015,11,10,09,46,7.20
2015,11,10,09,47,7.20
2015,11,10,09,48,7.30
2015,11,10,09,49,7.30
2015,11,10,09,50,7.30
2015,11,10,09,51,7.40
2015,11,10,09,52,7.40
2015,11,10,09,53,7.40
2015,11,10,09,54,7.40
2015,11,10,09,55,7.50
2015,11,10,09,56,7.50
2015,11,10,09,57,7.50
2015,11,10,09,58,7.50
2015,11,10,09,59,7.60
2015,11,10,10,00,7.60
2015,11,10,10,01,7.60
2015,11,10,10,02,7.60
2015,11,10,10,03,7.60
2015,11,10,10,04,7.60
2015,11,10,10,05,7.60
2015,11,10,10,06,7.60
2015,11,10,10,07,7.60
2015,11,10,10,08,7.60
2015,11,10,10,09,7.60
2015,11,10,10,10,7.60
2015,11,10,10,11,7.70
2015,11,10,10,12,7.70
2015,11,10,10,13,7.70
2015,11,10,10,14,7.70
2015,11,10,10,15,7.70
2015,11,10,10,16,7.70
2015,11,10,10,17,7.70
2015,11,10,10,18,7.70
2015,11,10,10,19,7.70
2015,11,10,10,20,7.80
2015,11,10,10,21,7.80
2015,11,10,10,22,7.80
2015,11,10,10,23,7.80
2015,11,10,10,24,7.80
2015,11,10,10,25,7.80
2015,11,10,10,26,7.90
2015,11,10,10,27,7.90
2015,11,10,10,28,7.90
2015,11,10,10,29,8.00
2015,11,10,10,30,8.00
2015,11,10,10,31,8.10
2015,11,10,10,32,8.10
2015,11,10,10,33,8.10
2015,11,10,10,34,8.10
2015,11,10,10,35,8.10
2015,11,10,10,36,8.10
2015,11,10,10,37,8.10
2015,11,10,10,38,8.00
2015,11,10,10,39,8.10
2015,11,10,10,40,8.10
2015,11,10,10,41,8.10
2015,11,10,10,42,8.10
2015,11,10,10,43,8.10
2015,11,10,10,44,8.00
2015,11,10,10,45,8.00
2015,11,10,10,46,8.00
2015,11,10,10,47,7.90
2015,11,10,10,48,7.90
2015,11,10,10,49,7.90
2015,11,10,10,50,8.00
2015,11,10,10,51,8.00
2015,11,10,10,52,8.00
2015,11,10,10,53,8.00
2015,11,10,10,54,8.10
2015,11,10,10,55,8.10
2015,11,10,10,56,8.20
2015,11,10,10,57,8.20
2015,11,10,10,58,8.30
2015,11,10,10,59,8.30
2015,11,10,11,00,8.30
2015,11,10,11,01,8.30
2015,11,10,11,02,8.30
2015,11,10,11,03,8.30
2015,11,10,11,04,8.30
2015,11,10,11,05,8.30
2015,11,10,11,06,8.30
2015,11,10,11,07,8.30
2015,11,10,11,08,8.30
2015,11,10,11,09,8.30
2015,11,10,11,10,8.30
2015,11,10,11,11,8.30
2015,11,10,11,12,8.20
2015,11,10,11,13,8.20
2015,11,10,11,14,8.30
2015,11,10,11,15,8.30
2015,11,10,11,16,8.30
2015,11,10,11,17,8.30
2015,11,10,11,18,8.30
2015,11,10,11,19,8.30
2015,11,10,11,20,8.30
2015,11,10,11,21,8.30
2015,11,10,11,22,8.40
2015,11,10,11,23,8.40
2015,11,10,11,24,8.40
2015,11,10,11,25,8.40
2015,11,10,11,26,8.50
2015,11,10,11,27,8.50
2015,11,10,11,28,8.50
2015,11,10,11,29,8.50
2015,11,10,11,30,8.60
2015,11,10,11,31,8.60
2015,11,10,11,32,8.60
2015,11,10,11,33,8.60
2015,11,10,11,34,8.60
2015,11,10,11,35,8.60
2015,11,10,11,36,8.60
2015,11,10,11,37,8.60
2015,11,10,11,38,8.60
2015,11,10,11,39,8.70
2015,11,10,11,40,8.70
2015,11,10,11,41,8.70
2015,11,10,11,42,8.70
2015,11,10,11,43,8.70
2015,11,10,11,44,8.70
2015,11,10,11,45,8.70
2015,11,10,11,46,8.70
2015,11,10,11,47,8.70
2015,11,10,11,48,8.80
2015,11,10,11,49,8.80
2015,11,10,11,50,8.80
2015,11,10,11,51,8.80
2015,11,10,11,52,8.80
2015,11,10,11,53,8.80
2015,11,10,11,54,8.80
2015,11,10,11,55,8.80
2015,11,10,11,56,8.80
2015,11,10,11,57,8.80
2015,11,10,11,58,8.80
2015,11,10,11,59,8.80
2015,11,10,12,00,8.80
2015,11,10,12,01,8.80
2015,11,10,12,02,8.90
2015,11,10,12,03,8.90
2015,11,10,12,04,8.90
2015,11,10,12,05,8.90
2015,11,10,12,06,8.80
2015,11,10,12,07,8.80
2015,11,10,12,08,8.80
2015,11,10,12,09,8.80
2015,11,10,12,10,8.80
2015,11,10,12,11,8.70
2015,11,10,12,12,8.80
2015,11,10,12,13,8.80
2015,11,10,12,14,8.80
2015,11,10,12,15,8.80
2015,11,10,12,16,8.80
2015,11,10,12,17,8.70
2015,11,10,12,18,8.70
2015,11,10,12,19,8.70
2015,11,10,12,20,8.70
2015,11,10,12,21,8.80
2015,11,10,12,22,8.80
2015,11,10,12,23,8.80
2015,11,10,12,24,8.80
2015,11,10,12,25,8.70
2015,11,10,12,26,8.70
2015,11,10,12,27,8.80
2015,11,10,12,28,8.70
2015,11,10,12,29,8.80
2015,11,10,12,30,8.80
2015,11,10,12,31,8.80
2015,11,10,12,32,8.70
2015,11,10,12,33,8.70
2015,11,10,12,34,8.70
2015,11,10,12,35,8.70
2015,11,10,12,36,8.70
2015,11,10,12,37,8.70
2015,11,10,12,38,8.70
2015,11,10,12,39,8.70
2015,11,10,12,40,8.70
2015,11,10,12,41,8.70
2015,11,10,12,42,8.70
2015,11,10,12,43,8.80
2015,11,10,12,44,8.80
2015,11,10,12,45,8.80
2015,11,10,12,46,8.70
2015,11,10,12,47,8.70
2015,11,10,12,48,8.70
2015,11,10,12,49,8.70
2015,11,10,12,50,8.80
2015,11,10,12,51,8.80
2015,11,10,12,52,8.70
2015,11,10,12,53,8.70
2015,11,10,12,54,8.70
2015,11,10,12,55,8.70
2015,11,10,12,56,8.70
2015,11,10,12,57,8.70
2015,11,10,12,58,8.70
2015,11,10,12,59,8.60
2015,11,10,13,00,8.60
2015,11,10,13,01,8.60
2015,11,10,13,02,8.60
2015,11,10,13,03,8.60
2015,11,10,13,04,8.60
2015,11,10,13,05,8.60
2015,11,10,13,06,8.60
2015,11,10,13,07,8.60
2015,11,10,13,08,8.60
2015,11,10,13,09,8.60
2015,11,10,13,10,8.60
2015,11,10,13,11,8.60
2015,11,10,13,12,8.60
2015,11,10,13,13,8.60
2015,11,10,13,14,8.60
2015,11,10,13,15,8.60
2015,11,10,13,16,8.60
2015,11,10,13,17,8.60
2015,11,10,13,18,8.60
2015,11,10,13,19,8.60
2015,11,10,13,20,8.60
2015,11,10,13,21,8.60
2015,11,10,13,22,8.60
2015,11,10,13,23,8.60
2015,11,10,13,24,8.60
2015,11,10,13,25,8.70
2015,11,10,13,26,8.70
2015,11,10,13,27,8.70
2015,11,10,13,28,8.70
2015,11,10,13,29,8.70
2015,11,10,13,30,8.70
2015,11,10,13,31,8.70
2015,11,10,13,32,8.70
2015,11,10,13,33,8.70
2015,11,10,13,34,8.70
2015,11,10,13,35,8.70
2015,11,10,13,36,8.70
2015,11,10,13,37,8.70
2015,11,10,13,38,8.70
2015,11,10,13,39,8.70
2015,11,10,13,40,8.70
2015,11,10,13,41,8.70
2015,11,10,13,42,8.70
2015,11,10,13,43,8.70
2015,11,10,13,44,8.70
2015,11,10,13,45,8.70
2015,11,10,13,46,8.70
2015,11,10,13,47,8.70
2015,11,10,13,48,8.70
2015,11,10,13,49,8.70
2015,11,10,13,50,8.70
2015,11,10,13,51,8.60
2015,11,10,13,52,8.60
2015,11,10,13,53,8.60
2015,11,10,13,54,8.60
2015,11,10,13,55,8.70
2015,11,10,13,56,8.70
2015,11,10,13,57,8.70
2015,11,10,13,58,8.70
2015,11,10,13,59,8.70
2015,11,10,14,00,8.70
2015,11,10,14,01,8.70
2015,11,10,14,02,8.70
2015,11,10,14,03,8.70
2015,11,10,14,04,8.70
2015,11,10,14,05,8.70
2015,11,10,14,06,8.70
2015,11,10,14,07,8.70
2015,11,10,14,08,8.70
2015,11,10,14,09,8.70
2015,11,10,14,10,8.70
2015,11,10,14,11,8.70
2015,11,10,14,12,8.70
2015,11,10,14,13,8.70
2015,11,10,14,14,8.70
2015,11,10,14,15,8.70
2015,11,10,14,16,8.70
2015,11,10,14,17,8.70
2015,11,10,14,18,8.70
2015,11,10,14,19,8.80
2015,11,10,14,20,8.70
2015,11,10,14,21,8.70
2015,11,10,14,22,8.70
2015,11,10,14,23,8.70
2015,11,10,14,24,8.70
2015,11,10,14,25,8.70
2015,11,10,14,26,8.80
2015,11,10,14,27,8.80
2015,11,10,14,28,8.80
2015,11,10,14,29,8.80
2015,11,10,14,30,8.80
2015,11,10,14,31,8.80
2015,11,10,14,32,8.80
2015,11,10,14,33,8.80
2015,11,10,14,34,8.70
2015,11,10,14,35,8.70
2015,11,10,14,36,8.70
2015,11,10,14,37,8.70
2015,11,10,14,38,8.70
2015,11,10,14,39,8.70
2015,11,10,14,40,8.70
2015,11,10,14,41,8.70
2015,11,10,14,42,8.80
2015,11,10,14,43,8.80
2015,11,10,14,44,8.80
2015,11,10,14,45,8.80
2015,11,10,14,46,8.80
2015,11,10,14,47,8.80
2015,11,10,14,48,8.90
2015,11,10,14,49,8.90
2015,11,10,14,50,8.90
2015,11,10,14,51,8.90
2015,11,10,14,52,9.00
2015,11,10,14,53,9.00
2015,11,10,14,54,9.00
2015,11,10,14,55,9.10
2015,11,10,14,56,9.10
2015,11,10,14,57,9.20
2015,11,10,14,58,9.20
2015,11,10,14,59,9.20
2015,11,10,15,00,9.20
2015,11,10,15,01,9.30
2015,11,10,15,02,9.30
2015,11,10,15,03,9.30
2015,11,10,15,04,9.30
2015,11,10,15,05,9.30
2015,11,10,15,06,9.30
2015,11,10,15,07,9.30
2015,11,10,15,08,9.30
2015,11,10,15,09,9.30
2015,11,10,15,10,9.30
2015,11,10,15,11,9.30
2015,11,10,15,12,9.30
2015,11,10,15,13,9.30
2015,11,10,15,14,9.30
2015,11,10,15,15,9.30
2015,11,10,15,16,9.20
2015,11,10,15,17,9.20
2015,11,10,15,18,9.20
2015,11,10,15,19,9.20
2015,11,10,15,20,9.20
2015,11,10,15,21,9.10
2015,11,10,15,22,9.10
2015,11,10,15,23,9.10
2015,11,10,15,24,9.10
2015,11,10,15,25,9.10
2015,11,10,15,26,9.10
2015,11,10,15,27,9.10
2015,11,10,15,28,9.00
2015,11,10,15,29,9.00
2015,11,10,15,30,9.00
2015,11,10,15,31,9.00
2015,11,10,15,32,9.00
2015,11,10,15,33,8.90
2015,11,10,15,34,8.90
2015,11,10,15,35,8.90
2015,11,10,15,36,8.90
2015,11,10,15,37,8.90
2015,11,10,15,38,8.90
2015,11,10,15,39,8.90
2015,11,10,15,40,8.90
2015,11,10,15,41,8.90
2015,11,10,15,42,8.90
2015,11,10,15,43,8.90
2015,11,10,15,44,8.80
2015,11,10,15,45,8.80
2015,11,10,15,46,8.80
2015,11,10,15,47,8.80
2015,11,10,15,48,8.80
2015,11,10,15,49,8.80
2015,11,10,15,50,8.80
2015,11,10,15,51,8.80
2015,11,10,15,52,8.70
2015,11,10,15,53,8.70
2015,11,10,15,54,8.70
2015,11,10,15,55,8.70
2015,11,10,15,56,8.70
2015,11,10,15,57,8.70
2015,11,10,15,58,8.70
2015,11,10,15,59,8.70
2015,11,10,16,00,8.70
2015,11,10,16,01,8.60
2015,11,10,16,02,8.60
2015,11,10,16,03,8.60
2015,11,10,16,04,8.60
2015,11,10,16,05,8.60
2015,11,10,16,06,8.60
2015,11,10,16,07,8.60
2015,11,10,16,08,8.60
2015,11,10,16,09,8.60
2015,11,10,16,10,8.50
2015,11,10,16,11,8.50
2015,11,10,16,12,8.50
2015,11,10,16,13,8.50
2015,11,10,16,14,8.50
2015,11,10,16,15,8.50
2015,11,10,16,16,8.50
2015,11,10,16,17,8.50
2015,11,10,16,18,8.50
2015,11,10,16,19,8.50
2015,11,10,16,20,8.50
2015,11,10,16,21,8.40
2015,11,10,16,22,8.40
2015,11,10,16,23,8.40
2015,11,10,16,24,8.40
2015,11,10,16,25,8.40
2015,11,10,16,26,8.40
2015,11,10,16,27,8.40
2015,11,10,16,28,8.40
2015,11,10,16,29,8.40
2015,11,10,16,30,8.40
2015,11,10,16,31,8.40
2015,11,10,16,32,8.40
2015,11,10,16,33,8.40
2015,11,10,16,34,8.40
2015,11,10,16,35,8.40
2015,11,10,16,36,8.40
2015,11,10,16,37,8.40
2015,11,10,16,38,8.40
2015,11,10,16,39,8.40
2015,11,10,16,40,8.40
2015,11,10,16,41,8.40
2015,11,10,16,42,8.40
2015,11,10,16,43,8.40
2015,11,10,16,44,8.40
2015,11,10,16,45,8.40
2015,11,10,16,46,8.40
2015,11,10,16,47,8.40
2015,11,10,16,48,8.40
2015,11,10,16,49,8.40
2015,11,10,16,50,8.40
2015,11,10,16,51,8.30
2015,11,10,16,52,8.30
2015,11,10,16,53,8.30
2015,11,10,16,54,8.30
2015,11,10,16,55,8.30
2015,11,10,16,56,8.30
2015,11,10,16,57,8.30
2015,11,10,16,58,8.30
2015,11,10,16,59,8.30
2015,11,10,17,00,8.30
2015,11,10,17,01,8.30
2015,11,10,17,02,8.30
2015,11,10,17,03,8.40
2015,11,10,17,04,8.40
2015,11,10,17,05,8.40
2015,11,10,17,06,8.40
2015,11,10,17,07,8.40
2015,11,10,17,08,8.40
2015,11,10,17,09,8.40
2015,11,10,17,10,8.40
2015,11,10,17,11,8.40
2015,11,10,17,12,8.40
2015,11,10,17,13,8.40
2015,11,10,17,14,8.30
2015,11,10,17,15,8.30
2015,11,10,17,16,8.30
2015,11,10,17,17,8.30
2015,11,10,17,18,8.30
2015,11,10,17,19,8.30
2015,11,10,17,20,8.30
2015,11,10,17,21,8.30
2015,11,10,17,22,8.30
2015,11,10,17,23,8.30
2015,11,10,17,24,8.30
2015,11,10,17,25,8.20
2015,11,10,17,26,8.20
2015,11,10,17,27,8.20
2015,11,10,17,28,8.20
2015,11,10,17,29,8.30
2015,11,10,17,30,8.30
2015,11,10,17,31,8.30
2015,11,10,17,32,8.30
2015,11,10,17,33,8.30
2015,11,10,17,34,8.30
2015,11,10,17,35,8.30
2015,11,10,17,36,8.30
2015,11,10,17,37,8.30
2015,11,10,17,38,8.30
2015,11,10,17,39,8.30
2015,11,10,17,40,8.30
2015,11,10,17,41,8.30
2015,11,10,17,42,8.30
2015,11,10,17,43,8.30
2015,11,10,17,44,8.30
2015,11,10,17,45,8.30
2015,11,10,17,46,8.30
2015,11,10,17,47,8.20
2015,11,10,17,48,8.20
2015,11,10,17,49,8.20
2015,11,10,17,50,8.20
2015,11,10,17,51,8.20
2015,11,10,17,52,8.20
2015,11,10,17,53,8.20
2015,11,10,17,54,8.20
2015,11,10,17,55,8.20
2015,11,10,17,56,8.20
2015,11,10,17,57,8.20
2015,11,10,17,58,8.20
2015,11,10,17,59,8.20
2015,11,10,18,00,8.20
2015,11,10,18,01,8.20
2015,11,10,18,02,8.20
2015,11,10,18,03,8.20
2015,11,10,18,04,8.20
2015,11,10,18,05,8.20
2015,11,10,18,06,8.20